#ZEITBEREICH: 04.05.2023 bis 04.05.2024
Datum;Zeit;BIEL NO AM1H [�g/m�];BIEL NO2 AM1H [�g/m�];BIEL O3 AM1H [�g/m�];BIEL PM10F GM24H [�g/m�]
04.05.2023;01:00;<7;24;39;11
04.05.2023;02:00;<7;26;28;
04.05.2023;03:00;<7;25;23;
04.05.2023;04:00;<7;28;11;
04.05.2023;05:00;10;32;<4;
04.05.2023;06:00;;;;
04.05.2023;07:00;40;45;10;
04.05.2023;08:00;20;33;27;
04.05.2023;09:00;13;26;41;
04.05.2023;10:00;8;16;61;
04.05.2023;11:00;;;;
04.05.2023;12:00;;;;
04.05.2023;13:00;;;;
04.05.2023;14:00;;;;
04.05.2023;15:00;7;13;91;
04.05.2023;16:00;10;18;90;
04.05.2023;17:00;<7;14;93;
04.05.2023;18:00;7;18;91;
04.05.2023;19:00;<7;20;85;
04.05.2023;20:00;<7;24;74;
04.05.2023;21:00;<7;27;65;
04.05.2023;22:00;<7;25;60;
04.05.2023;23:00;<7;18;63;
04.05.2023;24:00;<7;16;64;
05.05.2023;01:00;<7;14;63;
05.05.2023;02:00;<7;11;61;
05.05.2023;03:00;<7;11;60;
05.05.2023;04:00;<7;11;55;
05.05.2023;05:00;<7;19;41;
05.05.2023;06:00;9;34;26;
05.05.2023;07:00;13;46;17;17
05.05.2023;08:00;19;46;19;18
05.05.2023;09:00;8;33;40;18
05.05.2023;10:00;<7;21;55;18
05.05.2023;11:00;<7;15;71;19
05.05.2023;12:00;<7;<10;98;19
05.05.2023;13:00;<7;10;105;19
05.05.2023;14:00;<7;13;102;18
05.05.2023;15:00;;;102;18
05.05.2023;16:00;<7;<10;98;18
05.05.2023;17:00;<7;14;81;18
05.05.2023;18:00;7;20;71;18
05.05.2023;19:00;<7;21;65;17
05.05.2023;20:00;<7;17;58;17
05.05.2023;21:00;<7;18;51;16
05.05.2023;22:00;<7;15;52;16
05.05.2023;23:00;<7;12;;15
05.05.2023;24:00;<7;<10;63;15
06.05.2023;01:00;<7;<10;61;15
06.05.2023;02:00;<7;<10;61;14
06.05.2023;03:00;<7;<10;53;14
06.05.2023;04:00;<7;<10;47;14
06.05.2023;05:00;<7;<10;50;14
06.05.2023;06:00;<7;<10;54;13
06.05.2023;07:00;<7;<10;53;12
06.05.2023;08:00;<7;<10;52;12
06.05.2023;09:00;<7;<10;56;11
06.05.2023;10:00;<7;<10;63;10
06.05.2023;11:00;<7;<10;71;<10
06.05.2023;12:00;<7;10;80;<10
06.05.2023;13:00;<7;10;86;<10
06.05.2023;14:00;<7;11;90;<10
06.05.2023;15:00;<7;11;93;<10
06.05.2023;16:00;;;91;<10
06.05.2023;17:00;<7;12;89;<10
06.05.2023;18:00;<7;13;85;<10
06.05.2023;19:00;<7;14;80;<10
06.05.2023;20:00;<7;16;71;<10
06.05.2023;21:00;<7;17;67;<10
06.05.2023;22:00;<7;13;68;<10
06.05.2023;23:00;<7;20;52;<10
06.05.2023;24:00;<7;12;;<10
07.05.2023;01:00;<7;<10;43;10
07.05.2023;02:00;<7;<10;41;11
07.05.2023;03:00;<7;<10;41;11
07.05.2023;04:00;<7;<10;41;12
07.05.2023;05:00;<7;<10;41;12
07.05.2023;06:00;<7;<10;40;13
07.05.2023;07:00;<7;<10;39;13
07.05.2023;08:00;<7;<10;48;14
07.05.2023;09:00;<7;<10;49;14
07.05.2023;10:00;<7;<10;53;14
07.05.2023;11:00;<7;<10;61;14
07.05.2023;12:00;<7;<10;62;15
07.05.2023;13:00;<7;<10;63;15
07.05.2023;14:00;<7;<10;61;15
07.05.2023;15:00;<7;<10;63;15
07.05.2023;16:00;<7;<10;64;15
07.05.2023;17:00;<7;<10;65;15
07.05.2023;18:00;<7;11;67;16
07.05.2023;19:00;<7;11;66;16
07.05.2023;20:00;<7;11;55;16
07.05.2023;21:00;<7;10;55;16
07.05.2023;22:00;<7;12;50;17
07.05.2023;23:00;<7;<10;59;17
07.05.2023;24:00;<7;<10;65;16
08.05.2023;01:00;<7;<10;;16
08.05.2023;02:00;<7;<10;62;15
08.05.2023;03:00;<7;<10;60;15
08.05.2023;04:00;<7;<10;55;14
08.05.2023;05:00;<7;16;43;14
08.05.2023;06:00;8;25;30;14
08.05.2023;07:00;19;25;29;14
08.05.2023;08:00;12;18;38;13
08.05.2023;09:00;10;18;35;13
08.05.2023;10:00;8;14;40;14
08.05.2023;11:00;11;15;46;14
08.05.2023;12:00;<7;<10;61;14
08.05.2023;13:00;<7;16;66;14
08.05.2023;14:00;11;17;70;15
08.05.2023;15:00;8;16;75;15
08.05.2023;16:00;8;22;70;15
08.05.2023;17:00;<7;12;69;15
08.05.2023;18:00;<7;15;67;15
08.05.2023;19:00;<7;16;68;15
08.05.2023;20:00;<7;24;51;15
08.05.2023;21:00;<7;35;33;15
08.05.2023;22:00;<7;39;18;14
08.05.2023;23:00;<7;36;19;14
08.05.2023;24:00;<7;<10;78;15
09.05.2023;01:00;<7;11;64;15
09.05.2023;02:00;<7;10;;15
09.05.2023;03:00;<7;10;52;15
09.05.2023;04:00;<7;13;46;15
09.05.2023;05:00;<7;21;37;15
09.05.2023;06:00;11;32;34;15
09.05.2023;07:00;20;37;26;15
09.05.2023;08:00;10;21;45;15
09.05.2023;09:00;;;;15
09.05.2023;10:00;;;;15
09.05.2023;11:00;;;;15
09.05.2023;12:00;;;;15
09.05.2023;13:00;<7;10;;15
09.05.2023;14:00;<7;<10;79;15
09.05.2023;15:00;<7;<10;84;15
09.05.2023;16:00;<7;<10;84;15
09.05.2023;17:00;<7;11;81;15
09.05.2023;18:00;<7;<10;77;15
09.05.2023;19:00;<7;10;69;15
09.05.2023;20:00;<7;12;63;15
09.05.2023;21:00;<7;12;60;15
09.05.2023;22:00;<7;11;56;15
09.05.2023;23:00;<7;11;50;14
09.05.2023;24:00;<7;<10;52;14
10.05.2023;01:00;<7;<10;44;14
10.05.2023;02:00;<7;<10;45;13
10.05.2023;03:00;<7;<10;45;13
10.05.2023;04:00;<7;<10;54;13
10.05.2023;05:00;<7;<10;41;12
10.05.2023;06:00;<7;<10;50;12
10.05.2023;07:00;<7;12;53;11
10.05.2023;08:00;<7;12;61;11
10.05.2023;09:00;<7;15;54;10
10.05.2023;10:00;<7;11;52;<10
10.05.2023;11:00;<7;11;51;<10
10.05.2023;12:00;<7;<10;65;<10
10.05.2023;13:00;<7;<10;74;<10
10.05.2023;14:00;10;17;58;<10
10.05.2023;15:00;<7;11;66;<10
10.05.2023;16:00;<7;17;58;<10
10.05.2023;17:00;<7;19;51;<10
10.05.2023;18:00;<7;19;49;<10
10.05.2023;19:00;<7;19;45;<10
10.05.2023;20:00;<7;16;48;<10
10.05.2023;21:00;<7;20;46;<10
10.05.2023;22:00;<7;18;39;<10
10.05.2023;23:00;<7;19;;<10
10.05.2023;24:00;<7;15;34;<10
11.05.2023;01:00;<7;12;42;10
11.05.2023;02:00;<7;11;35;11
11.05.2023;03:00;<7;11;26;11
11.05.2023;04:00;<7;11;22;12
11.05.2023;05:00;<7;14;24;12
11.05.2023;06:00;<7;14;25;13
11.05.2023;07:00;<7;18;27;14
11.05.2023;08:00;<7;18;38;15
11.05.2023;09:00;<7;19;38;15
11.05.2023;10:00;<7;19;44;15
11.05.2023;11:00;19;26;34;15
11.05.2023;12:00;18;24;40;15
11.05.2023;13:00;15;21;51;15
11.05.2023;14:00;12;16;53;15
11.05.2023;15:00;12;18;52;15
11.05.2023;16:00;19;22;48;14
11.05.2023;17:00;21;24;45;14
11.05.2023;18:00;16;20;47;14
11.05.2023;19:00;11;18;45;13
11.05.2023;20:00;15;21;34;13
11.05.2023;21:00;8;18;34;14
11.05.2023;22:00;7;14;35;14
11.05.2023;23:00;<7;16;29;14
11.05.2023;24:00;<7;14;;14
12.05.2023;01:00;<7;14;16;14
12.05.2023;02:00;<7;14;14;14
12.05.2023;03:00;<7;12;19;14
12.05.2023;04:00;<7;14;16;14
12.05.2023;05:00;<7;15;13;14
12.05.2023;06:00;23;31;5;14
12.05.2023;07:00;21;31;5;13
12.05.2023;08:00;38;37;5;13
12.05.2023;09:00;24;29;20;13
12.05.2023;10:00;18;21;36;13
12.05.2023;11:00;13;17;56;13
12.05.2023;12:00;8;16;70;13
12.05.2023;13:00;8;16;90;14
12.05.2023;14:00;9;16;97;14
12.05.2023;15:00;<7;17;102;15
12.05.2023;16:00;<7;15;107;15
12.05.2023;17:00;<7;15;111;15
12.05.2023;18:00;<7;18;108;16
12.05.2023;19:00;<7;17;110;16
12.05.2023;20:00;<7;32;92;16
12.05.2023;21:00;<7;29;76;17
12.05.2023;22:00;<7;36;61;17
12.05.2023;23:00;<7;60;21;17
12.05.2023;24:00;<7;61;17;17
13.05.2023;01:00;<7;34;;17
13.05.2023;02:00;<7;28;48;17
13.05.2023;03:00;<7;24;43;18
13.05.2023;04:00;<7;23;43;18
13.05.2023;05:00;<7;20;54;18
13.05.2023;06:00;<7;21;56;18
13.05.2023;07:00;7;26;48;19
13.05.2023;08:00;10;20;58;19
13.05.2023;09:00;8;18;66;19
13.05.2023;10:00;9;17;74;20
13.05.2023;11:00;<7;16;91;20
13.05.2023;12:00;8;17;100;20
13.05.2023;13:00;<7;15;105;20
13.05.2023;14:00;8;16;105;21
13.05.2023;15:00;<7;14;111;21
13.05.2023;16:00;<7;13;110;21
13.05.2023;17:00;<7;12;112;21
13.05.2023;18:00;<7;16;108;21
13.05.2023;19:00;8;23;97;21
13.05.2023;20:00;<7;25;91;21
13.05.2023;21:00;<7;22;79;21
13.05.2023;22:00;<7;42;45;21
13.05.2023;23:00;<7;59;17;21
13.05.2023;24:00;12;64;4;21
14.05.2023;01:00;10;56;5;21
14.05.2023;02:00;8;46;;21
14.05.2023;03:00;<7;40;<4;22
14.05.2023;04:00;9;32;<4;22
14.05.2023;05:00;16;34;<4;22
14.05.2023;06:00;<7;27;11;22
14.05.2023;07:00;<7;19;26;22
14.05.2023;08:00;<7;12;48;22
14.05.2023;09:00;<7;12;59;21
14.05.2023;10:00;<7;<10;74;21
14.05.2023;11:00;<7;<10;83;20
14.05.2023;12:00;<7;<10;86;20
14.05.2023;13:00;<7;<10;89;19
14.05.2023;14:00;8;<10;85;18
14.05.2023;15:00;<7;<10;86;18
14.05.2023;16:00;<7;<10;87;17
14.05.2023;17:00;<7;<10;84;17
14.05.2023;18:00;<7;15;80;17
14.05.2023;19:00;<7;13;81;16
14.05.2023;20:00;<7;<10;89;16
14.05.2023;21:00;<7;13;71;15
14.05.2023;22:00;<7;21;44;15
14.05.2023;23:00;<7;15;37;14
14.05.2023;24:00;<7;17;26;14
15.05.2023;01:00;<7;14;19;13
15.05.2023;02:00;<7;13;20;13
15.05.2023;03:00;<7;10;;12
15.05.2023;04:00;<7;11;18;11
15.05.2023;05:00;<7;17;34;11
15.05.2023;06:00;<7;26;25;11
15.05.2023;07:00;16;43;20;10
15.05.2023;08:00;15;38;21;11
15.05.2023;09:00;12;29;28;11
15.05.2023;10:00;7;19;63;12
15.05.2023;11:00;<7;19;67;13
15.05.2023;12:00;<7;15;90;13
15.05.2023;13:00;<7;14;78;14
15.05.2023;14:00;<7;15;88;15
15.05.2023;15:00;<7;15;102;16
15.05.2023;16:00;<7;13;105;16
15.05.2023;17:00;<7;13;110;17
15.05.2023;18:00;8;19;104;18
15.05.2023;19:00;9;20;97;18
15.05.2023;20:00;<7;13;95;19
15.05.2023;21:00;<7;19;75;19
15.05.2023;22:00;<7;<10;69;19
15.05.2023;23:00;<7;10;62;19
15.05.2023;24:00;<7;<10;74;19
16.05.2023;01:00;<7;<10;74;19
16.05.2023;02:00;<7;<10;67;19
16.05.2023;03:00;<7;<10;65;19
16.05.2023;04:00;<7;<10;;18
16.05.2023;05:00;<7;12;67;18
16.05.2023;06:00;<7;<10;64;18
16.05.2023;07:00;13;16;57;18
16.05.2023;08:00;10;13;58;18
16.05.2023;09:00;12;12;61;17
16.05.2023;10:00;9;10;67;16
16.05.2023;11:00;7;<10;71;16
16.05.2023;12:00;<7;<10;73;15
16.05.2023;13:00;9;14;69;14
16.05.2023;14:00;9;14;72;14
16.05.2023;15:00;10;12;76;13
16.05.2023;16:00;15;15;68;12
16.05.2023;17:00;10;13;70;12
16.05.2023;18:00;9;12;70;11
16.05.2023;19:00;7;11;71;11
16.05.2023;20:00;<7;14;71;10
16.05.2023;21:00;<7;10;69;<10
16.05.2023;22:00;<7;<10;70;<10
16.05.2023;23:00;<7;<10;70;<10
16.05.2023;24:00;<7;<10;69;<10
17.05.2023;01:00;<7;<10;67;<10
17.05.2023;02:00;<7;<10;65;<10
17.05.2023;03:00;<7;<10;65;<10
17.05.2023;04:00;<7;<10;60;<10
17.05.2023;05:00;<7;<10;;<10
17.05.2023;06:00;<7;15;53;<10
17.05.2023;07:00;13;20;50;<10
17.05.2023;08:00;15;23;50;<10
17.05.2023;09:00;14;15;56;<10
17.05.2023;10:00;13;16;62;<10
17.05.2023;11:00;10;11;63;10
17.05.2023;12:00;11;12;64;10
17.05.2023;13:00;9;11;69;11
17.05.2023;14:00;13;16;70;11
17.05.2023;15:00;13;14;75;11
17.05.2023;16:00;12;15;72;11
17.05.2023;17:00;14;14;71;11
17.05.2023;18:00;10;15;73;11
17.05.2023;19:00;8;16;73;12
17.05.2023;20:00;13;24;63;12
17.05.2023;21:00;7;15;66;12
17.05.2023;22:00;<7;13;67;12
17.05.2023;23:00;<7;17;60;13
17.05.2023;24:00;<7;14;54;13
18.05.2023;01:00;<7;18;46;13
18.05.2023;02:00;<7;13;51;13
18.05.2023;03:00;<7;11;45;13
18.05.2023;04:00;<7;16;30;13
18.05.2023;05:00;<7;15;29;13
18.05.2023;06:00;<7;18;;13
18.05.2023;07:00;<7;14;50;13
18.05.2023;08:00;<7;<10;66;13
18.05.2023;09:00;<7;<10;75;13
18.05.2023;10:00;<7;<10;76;13
18.05.2023;11:00;<7;<10;77;13
18.05.2023;12:00;<7;<10;77;13
18.05.2023;13:00;<7;<10;80;13
18.05.2023;14:00;<7;<10;84;12
18.05.2023;15:00;<7;<10;87;12
18.05.2023;16:00;<7;<10;90;12
18.05.2023;17:00;<7;<10;88;12
18.05.2023;18:00;<7;11;89;12
18.05.2023;19:00;<7;10;91;12
18.05.2023;20:00;<7;11;85;12
18.05.2023;21:00;<7;20;71;12
18.05.2023;22:00;<7;17;62;12
18.05.2023;23:00;<7;33;37;12
18.05.2023;24:00;<7;29;38;12
19.05.2023;01:00;<7;31;29;12
19.05.2023;02:00;<7;27;27;12
19.05.2023;03:00;<7;25;18;12
19.05.2023;04:00;<7;22;13;12
19.05.2023;05:00;8;27;13;12
19.05.2023;06:00;18;37;13;12
19.05.2023;07:00;12;30;;13
19.05.2023;08:00;13;25;37;13
19.05.2023;09:00;11;20;49;13
19.05.2023;10:00;9;16;60;13
19.05.2023;11:00;<7;11;76;13
19.05.2023;12:00;8;11;85;13
19.05.2023;13:00;8;11;89;13
19.05.2023;14:00;8;11;93;13
19.05.2023;15:00;<7;11;95;13
19.05.2023;16:00;<7;10;97;12
19.05.2023;17:00;<7;11;96;12
19.05.2023;18:00;<7;14;92;12
19.05.2023;19:00;<7;12;87;12
19.05.2023;20:00;7;15;80;12
19.05.2023;21:00;<7;17;75;12
19.05.2023;22:00;<7;20;65;12
19.05.2023;23:00;<7;18;62;12
19.05.2023;24:00;<7;21;51;11
20.05.2023;01:00;<7;27;38;11
20.05.2023;02:00;<7;21;43;11
20.05.2023;03:00;<7;15;49;11
20.05.2023;04:00;<7;12;51;11
20.05.2023;05:00;<7;11;53;11
20.05.2023;06:00;<7;12;52;11
20.05.2023;07:00;<7;13;50;10
20.05.2023;08:00;<7;13;52;10
20.05.2023;09:00;<7;<10;59;10
20.05.2023;10:00;<7;<10;77;<10
20.05.2023;11:00;<7;<10;80;<10
20.05.2023;12:00;<7;<10;80;<10
20.05.2023;13:00;<7;<10;78;<10
20.05.2023;14:00;<7;<10;80;<10
20.05.2023;15:00;<7;<10;81;<10
20.05.2023;16:00;<7;<10;78;<10
20.05.2023;17:00;<7;<10;74;10
20.05.2023;18:00;<7;10;72;10
20.05.2023;19:00;<7;11;69;11
20.05.2023;20:00;<7;13;66;11
20.05.2023;21:00;<7;12;67;11
20.05.2023;22:00;7;15;61;11
20.05.2023;23:00;<7;15;;11
20.05.2023;24:00;<7;11;58;11
21.05.2023;01:00;<7;11;56;11
21.05.2023;02:00;<7;11;52;12
21.05.2023;03:00;<7;<10;56;12
21.05.2023;04:00;<7;<10;51;12
21.05.2023;05:00;<7;<10;48;12
21.05.2023;06:00;<7;<10;44;12
21.05.2023;07:00;<7;<10;48;12
21.05.2023;08:00;<7;<10;48;12
21.05.2023;09:00;<7;<10;49;12
21.05.2023;10:00;<7;<10;51;13
21.05.2023;11:00;<7;10;53;13
21.05.2023;12:00;<7;10;58;14
21.05.2023;13:00;7;12;65;14
21.05.2023;14:00;<7;11;79;15
21.05.2023;15:00;<7;10;89;15
21.05.2023;16:00;<7;<10;97;16
21.05.2023;17:00;<7;11;99;17
21.05.2023;18:00;<7;11;102;17
21.05.2023;19:00;<7;14;99;18
21.05.2023;20:00;<7;16;92;18
21.05.2023;21:00;<7;21;79;18
21.05.2023;22:00;<7;19;67;19
21.05.2023;23:00;<7;21;66;19
21.05.2023;24:00;<7;20;;20
22.05.2023;01:00;<7;13;74;20
22.05.2023;02:00;<7;<10;65;21
22.05.2023;03:00;<7;<10;46;21
22.05.2023;04:00;<7;<10;34;22
22.05.2023;05:00;<7;14;28;23
22.05.2023;06:00;<7;19;24;23
22.05.2023;07:00;20;38;12;24
22.05.2023;08:00;18;39;20;24
22.05.2023;09:00;9;21;48;25
22.05.2023;10:00;8;18;58;25
22.05.2023;11:00;8;16;73;25
22.05.2023;12:00;<7;15;91;26
22.05.2023;13:00;8;20;97;26
22.05.2023;14:00;11;18;97;26
22.05.2023;15:00;<7;15;102;26
22.05.2023;16:00;<7;14;103;26
22.05.2023;17:00;<7;17;95;26
22.05.2023;18:00;<7;18;87;26
22.05.2023;19:00;<7;17;72;25
22.05.2023;20:00;<7;11;85;25
22.05.2023;21:00;<7;<10;90;24
22.05.2023;22:00;<7;<10;82;24
22.05.2023;23:00;<7;<10;72;24
22.05.2023;24:00;<7;<10;74;24
23.05.2023;01:00;<7;<10;;23
23.05.2023;02:00;<7;<10;72;23
23.05.2023;03:00;<7;<10;74;23
23.05.2023;04:00;<7;<10;84;22
23.05.2023;05:00;<7;<10;77;22
23.05.2023;06:00;<7;11;69;21
23.05.2023;07:00;<7;15;71;21
23.05.2023;08:00;<7;16;72;20
23.05.2023;09:00;<7;11;73;19
23.05.2023;10:00;7;11;70;19
23.05.2023;11:00;9;13;62;18
23.05.2023;12:00;9;13;61;17
23.05.2023;13:00;12;16;63;17
23.05.2023;14:00;11;12;68;16
23.05.2023;15:00;11;14;73;16
23.05.2023;16:00;14;18;72;15
23.05.2023;17:00;12;17;69;15
23.05.2023;18:00;10;14;70;15
23.05.2023;19:00;<7;11;74;15
23.05.2023;20:00;<7;<10;74;15
23.05.2023;21:00;<7;11;74;15
23.05.2023;22:00;<7;<10;73;15
23.05.2023;23:00;<7;<10;68;15
23.05.2023;24:00;<7;<10;66;15
24.05.2023;01:00;<7;<10;64;14
24.05.2023;02:00;<7;<10;;14
24.05.2023;03:00;<7;<10;64;14
24.05.2023;04:00;<7;<10;63;14
24.05.2023;05:00;<7;<10;53;15
24.05.2023;06:00;<7;16;43;15
24.05.2023;07:00;<7;20;33;15
24.05.2023;08:00;7;19;41;15
24.05.2023;09:00;9;13;55;15
24.05.2023;10:00;11;13;61;17
24.05.2023;11:00;12;17;57;17
24.05.2023;12:00;12;15;59;18
24.05.2023;13:00;11;14;59;18
24.05.2023;14:00;12;16;59;18
24.05.2023;15:00;9;13;60;18
24.05.2023;16:00;11;16;58;18
24.05.2023;17:00;10;17;57;18
24.05.2023;18:00;<7;11;63;18
24.05.2023;19:00;10;15;62;18
24.05.2023;20:00;<7;17;56;19
24.05.2023;21:00;<7;13;52;19
24.05.2023;22:00;<7;23;33;19
24.05.2023;23:00;<7;27;24;19
24.05.2023;24:00;<7;20;31;19
25.05.2023;01:00;<7;<10;40;19
25.05.2023;02:00;<7;<10;32;19
25.05.2023;03:00;<7;12;;19
25.05.2023;04:00;<7;10;20;19
25.05.2023;05:00;11;21;7;19
25.05.2023;06:00;16;26;23;18
25.05.2023;07:00;29;32;31;18
25.05.2023;08:00;22;27;50;18
25.05.2023;09:00;9;16;64;18
25.05.2023;10:00;12;17;62;17
25.05.2023;11:00;18;19;62;17
25.05.2023;12:00;17;17;62;17
25.05.2023;13:00;18;18;58;17
25.05.2023;14:00;15;19;64;17
25.05.2023;15:00;16;19;67;17
25.05.2023;16:00;16;19;67;17
25.05.2023;17:00;11;16;76;17
25.05.2023;18:00;8;13;79;17
25.05.2023;19:00;<7;11;83;17
25.05.2023;20:00;10;15;77;17
25.05.2023;21:00;11;18;67;17
25.05.2023;22:00;8;16;66;17
25.05.2023;23:00;<7;12;65;17
25.05.2023;24:00;<7;11;60;17
26.05.2023;01:00;<7;<10;61;17
26.05.2023;02:00;<7;<10;55;18
26.05.2023;03:00;<7;10;48;18
26.05.2023;04:00;<7;12;;18
26.05.2023;05:00;<7;27;37;19
26.05.2023;06:00;11;24;40;19
26.05.2023;07:00;16;19;50;19
26.05.2023;08:00;13;13;56;19
26.05.2023;09:00;10;11;58;20
26.05.2023;10:00;11;11;62;20
26.05.2023;11:00;11;11;66;20
26.05.2023;12:00;13;12;70;20
26.05.2023;13:00;11;14;74;20
26.05.2023;14:00;16;16;73;20
26.05.2023;15:00;11;15;77;20
26.05.2023;16:00;9;12;87;20
26.05.2023;17:00;10;13;89;21
26.05.2023;18:00;11;14;85;20
26.05.2023;19:00;<7;10;83;20
26.05.2023;20:00;7;11;77;20
26.05.2023;21:00;7;15;70;20
26.05.2023;22:00;7;20;61;20
26.05.2023;23:00;<7;16;60;19
26.05.2023;24:00;<7;14;58;19
27.05.2023;01:00;<7;13;55;19
27.05.2023;02:00;<7;13;52;19
27.05.2023;03:00;<7;11;50;19
27.05.2023;04:00;<7;14;41;18
27.05.2023;05:00;<7;23;;18
27.05.2023;06:00;;21;29;18
27.05.2023;07:00;<7;14;40;18
27.05.2023;08:00;7;14;48;18
27.05.2023;09:00;<7;15;49;17
27.05.2023;10:00;<7;10;64;17
27.05.2023;11:00;<7;<10;74;17
27.05.2023;12:00;7;11;78;17
27.05.2023;13:00;<7;<10;82;16
27.05.2023;14:00;<7;<10;86;16
27.05.2023;15:00;<7;<10;89;16
27.05.2023;16:00;<7;<10;93;15
27.05.2023;17:00;<7;<10;93;15
27.05.2023;18:00;<7;<10;95;15
27.05.2023;19:00;<7;13;93;14
27.05.2023;20:00;<7;15;88;14
27.05.2023;21:00;<7;26;72;14
27.05.2023;22:00;<7;23;63;14
27.05.2023;23:00;<7;36;38;14
27.05.2023;24:00;<7;50;14;14
28.05.2023;01:00;<7;53;<4;14
28.05.2023;02:00;10;44;<4;15
28.05.2023;03:00;<7;33;<4;15
28.05.2023;04:00;<7;26;13;15
28.05.2023;05:00;<7;21;13;15
28.05.2023;06:00;<7;20;;15
28.05.2023;07:00;;;32;15
28.05.2023;08:00;<7;17;45;15
28.05.2023;09:00;<7;13;59;14
28.05.2023;10:00;<7;<10;76;14
28.05.2023;11:00;<7;<10;90;14
28.05.2023;12:00;<7;<10;96;14
28.05.2023;13:00;<7;<10;96;14
28.05.2023;14:00;<7;<10;100;14
28.05.2023;15:00;<7;<10;104;14
28.05.2023;16:00;<7;<10;109;14
28.05.2023;17:00;<7;<10;107;14
28.05.2023;18:00;<7;<10;108;14
28.05.2023;19:00;<7;<10;106;14
28.05.2023;20:00;<7;11;99;14
28.05.2023;21:00;<7;<10;75;14
28.05.2023;22:00;<7;12;65;14
28.05.2023;23:00;<7;12;61;14
28.05.2023;24:00;<7;<10;57;13
29.05.2023;01:00;<7;<10;58;13
29.05.2023;02:00;<7;<10;64;12
29.05.2023;03:00;<7;<10;66;12
29.05.2023;04:00;<7;<10;63;11
29.05.2023;05:00;<7;<10;61;11
29.05.2023;06:00;<7;<10;59;11
29.05.2023;07:00;<7;<10;;11
29.05.2023;08:00;;;59;11
29.05.2023;09:00;<7;<10;63;11
29.05.2023;10:00;<7;<10;67;11
29.05.2023;11:00;<7;<10;71;11
29.05.2023;12:00;<7;<10;78;11
29.05.2023;13:00;<7;<10;80;11
29.05.2023;14:00;<7;<10;83;11
29.05.2023;15:00;<7;<10;86;11
29.05.2023;16:00;<7;<10;93;11
29.05.2023;17:00;<7;<10;98;11
29.05.2023;18:00;<7;<10;91;11
29.05.2023;19:00;<7;<10;91;11
29.05.2023;20:00;<7;<10;88;11
29.05.2023;21:00;<7;10;81;11
29.05.2023;22:00;<7;<10;76;11
29.05.2023;23:00;<7;<10;74;11
29.05.2023;24:00;<7;<10;70;12
30.05.2023;01:00;<7;<10;71;12
30.05.2023;02:00;<7;<10;72;12
30.05.2023;03:00;<7;<10;75;13
30.05.2023;04:00;<7;<10;75;13
30.05.2023;05:00;<7;<10;74;13
30.05.2023;06:00;<7;16;64;13
30.05.2023;07:00;9;17;64;14
30.05.2023;08:00;10;16;68;14
30.05.2023;09:00;;;76;14
30.05.2023;10:00;<7;10;75;15
30.05.2023;11:00;8;<10;79;15
30.05.2023;12:00;9;12;81;15
30.05.2023;13:00;8;11;81;15
30.05.2023;14:00;9;<10;68;15
30.05.2023;15:00;12;13;59;15
30.05.2023;16:00;11;12;55;15
30.05.2023;17:00;11;13;55;15
30.05.2023;18:00;<7;12;59;15
30.05.2023;19:00;8;11;60;15
30.05.2023;20:00;<7;12;61;15
30.05.2023;21:00;<7;19;55;15
30.05.2023;22:00;<7;16;52;15
30.05.2023;23:00;<7;11;;14
30.05.2023;24:00;<7;10;50;14
31.05.2023;01:00;<7;14;42;14
31.05.2023;02:00;<7;21;33;14
31.05.2023;03:00;<7;19;32;13
31.05.2023;04:00;<7;17;32;13
31.05.2023;05:00;<7;24;23;13
31.05.2023;06:00;18;29;19;13
31.05.2023;07:00;20;26;24;13
31.05.2023;08:00;16;23;34;14
31.05.2023;09:00;15;25;41;14
31.05.2023;10:00;;;53;14
31.05.2023;11:00;9;18;72;14
31.05.2023;12:00;8;15;88;14
31.05.2023;13:00;8;15;90;14
31.05.2023;14:00;11;15;89;14
31.05.2023;15:00;10;17;89;14
31.05.2023;16:00;10;16;90;14
31.05.2023;17:00;7;14;94;14
31.05.2023;18:00;<7;14;95;14
31.05.2023;19:00;<7;17;98;14
31.05.2023;20:00;<7;17;99;14
31.05.2023;21:00;<7;16;78;14
31.05.2023;22:00;<7;12;68;14
31.05.2023;23:00;<7;<10;67;14
31.05.2023;24:00;<7;<10;;15
01.06.2023;01:00;<7;<10;64;15
01.06.2023;02:00;<7;<10;66;15
01.06.2023;03:00;<7;<10;71;15
01.06.2023;04:00;<7;<10;71;14
01.06.2023;05:00;<7;11;67;14
01.06.2023;06:00;<7;14;65;14
01.06.2023;07:00;14;23;60;14
01.06.2023;08:00;15;18;59;14
01.06.2023;09:00;9;14;61;14
01.06.2023;10:00;10;17;57;14
01.06.2023;11:00;;;57;14
01.06.2023;12:00;16;17;51;14
01.06.2023;13:00;12;15;52;13
01.06.2023;14:00;13;17;51;13
01.06.2023;15:00;9;13;56;13
01.06.2023;16:00;17;19;50;13
01.06.2023;17:00;16;20;51;13
01.06.2023;18:00;12;17;63;13
01.06.2023;19:00;9;19;66;13
01.06.2023;20:00;9;17;67;13
01.06.2023;21:00;<7;14;70;13
01.06.2023;22:00;<7;13;71;13
01.06.2023;23:00;<7;11;70;13
01.06.2023;24:00;<7;<10;72;13
02.06.2023;01:00;<7;<10;;13
02.06.2023;02:00;<7;<10;83;13
02.06.2023;03:00;<7;<10;84;14
02.06.2023;04:00;<7;<10;83;14
02.06.2023;05:00;<7;<10;81;14
02.06.2023;06:00;<7;18;75;14
02.06.2023;07:00;16;24;66;14
02.06.2023;08:00;14;23;65;14
02.06.2023;09:00;15;21;65;15
02.06.2023;10:00;12;21;65;15
02.06.2023;11:00;12;15;66;15
02.06.2023;12:00;;;67;16
02.06.2023;13:00;11;13;72;16
02.06.2023;14:00;13;15;76;17
02.06.2023;15:00;10;17;80;17
02.06.2023;16:00;8;13;81;17
02.06.2023;17:00;10;16;80;18
02.06.2023;18:00;9;15;75;18
02.06.2023;19:00;<7;15;74;18
02.06.2023;20:00;8;18;68;18
02.06.2023;21:00;<7;19;68;18
02.06.2023;22:00;<7;20;61;18
02.06.2023;23:00;<7;26;47;19
02.06.2023;24:00;<7;30;39;19
03.06.2023;01:00;<7;28;35;19
03.06.2023;02:00;<7;31;;19
03.06.2023;03:00;<7;16;48;18
03.06.2023;04:00;<7;10;49;18
03.06.2023;05:00;<7;14;38;17
03.06.2023;06:00;<7;23;30;17
03.06.2023;07:00;<7;15;50;17
03.06.2023;08:00;<7;11;57;16
03.06.2023;09:00;<7;<10;67;15
03.06.2023;10:00;<7;<10;71;15
03.06.2023;11:00;7;<10;75;14
03.06.2023;12:00;7;<10;78;13
03.06.2023;13:00;;;80;13
03.06.2023;14:00;<7;11;81;12
03.06.2023;15:00;<7;<10;82;12
03.06.2023;16:00;<7;<10;86;11
03.06.2023;17:00;<7;11;85;11
03.06.2023;18:00;<7;11;89;11
03.06.2023;19:00;<7;10;89;10
03.06.2023;20:00;<7;14;85;<10
03.06.2023;21:00;<7;28;66;<10
03.06.2023;22:00;<7;26;56;<10
03.06.2023;23:00;<7;37;36;<10
03.06.2023;24:00;<7;55;11;<10
04.06.2023;01:00;<7;50;14;<10
04.06.2023;02:00;<7;24;45;<10
04.06.2023;03:00;<7;13;;<10
04.06.2023;04:00;<7;14;48;<10
04.06.2023;05:00;<7;14;46;<10
04.06.2023;06:00;<7;11;53;<10
04.06.2023;07:00;<7;14;50;<10
04.06.2023;08:00;<7;10;55;<10
04.06.2023;09:00;<7;10;63;<10
04.06.2023;10:00;<7;12;73;<10
04.06.2023;11:00;<7;<10;91;<10
04.06.2023;12:00;<7;<10;98;<10
04.06.2023;13:00;<7;<10;101;<10
04.06.2023;14:00;;;101;<10
04.06.2023;15:00;<7;<10;101;<10
04.06.2023;16:00;<7;<10;103;<10
04.06.2023;17:00;<7;13;100;<10
04.06.2023;18:00;<7;14;99;<10
04.06.2023;19:00;<7;<10;99;<10
04.06.2023;20:00;<7;14;92;<10
04.06.2023;21:00;<7;16;83;<10
04.06.2023;22:00;<7;12;72;<10
04.06.2023;23:00;<7;<10;69;<10
04.06.2023;24:00;<7;11;62;<10
05.06.2023;01:00;<7;14;53;<10
05.06.2023;02:00;<7;<10;54;<10
05.06.2023;03:00;<7;12;45;<10
05.06.2023;04:00;<7;23;;<10
05.06.2023;05:00;10;27;27;<10
05.06.2023;06:00;13;26;30;<10
05.06.2023;07:00;16;22;37;10
05.06.2023;08:00;17;23;35;10
05.06.2023;09:00;15;22;41;11
05.06.2023;10:00;14;20;48;11
05.06.2023;11:00;11;17;62;11
05.06.2023;12:00;9;16;76;12
05.06.2023;13:00;9;15;88;12
05.06.2023;14:00;8;15;96;12
05.06.2023;15:00;;;99;12
05.06.2023;16:00;11;22;97;12
05.06.2023;17:00;<7;14;108;12
05.06.2023;18:00;8;16;109;13
05.06.2023;19:00;<7;15;114;13
05.06.2023;20:00;<7;19;103;13
05.06.2023;21:00;<7;24;88;13
05.06.2023;22:00;<7;16;76;13
05.06.2023;23:00;<7;15;67;14
05.06.2023;24:00;<7;12;64;14
06.06.2023;01:00;<7;19;51;14
06.06.2023;02:00;<7;19;43;14
06.06.2023;03:00;<7;13;45;14
06.06.2023;04:00;<7;11;43;14
06.06.2023;05:00;9;17;;14
06.06.2023;06:00;13;25;26;14
06.06.2023;07:00;23;25;30;14
06.06.2023;08:00;15;20;41;14
06.06.2023;09:00;14;19;45;14
06.06.2023;10:00;10;16;59;15
06.06.2023;11:00;9;15;71;15
06.06.2023;12:00;10;19;71;15
06.06.2023;13:00;9;19;83;15
06.06.2023;14:00;12;26;83;15
06.06.2023;15:00;11;28;85;16
06.06.2023;16:00;;;87;16
06.06.2023;17:00;<7;25;94;16
06.06.2023;18:00;<7;28;92;16
06.06.2023;19:00;<7;23;91;17
06.06.2023;20:00;<7;17;92;17
06.06.2023;21:00;<7;24;80;17
06.06.2023;22:00;<7;20;85;17
06.06.2023;23:00;<7;16;77;17
06.06.2023;24:00;<7;12;71;17
07.06.2023;01:00;<7;12;70;17
07.06.2023;02:00;<7;<10;70;17
07.06.2023;03:00;<7;11;60;17
07.06.2023;04:00;<7;12;57;17
07.06.2023;05:00;8;23;38;17
07.06.2023;06:00;13;28;;17